sat.trackr.live / text

‹ back to catalog

STARLINK-30848

NORAD 58240 · 2023-171L

PAYLOAD ACTIVE UNKNOWN

§ Identity

Operator
Country
US
Launch date
2023-11-08
Launch site
AFETR
Launch vehicle
Mass (kg)
RCS (m²)

Purposes: comms

External: N2YO · Heavens-Above · Gunter

§ Orbital elements

Epoch: 2026-09-20T01:45:10.333728Z

Period
94.27 min
Inclination
43.0044°
Eccentricity
0.0001771
Mean motion
15.27574109 rev/d
Perigee alt
481.9 km
Apogee alt
484.3 km
Semi-major
6,861.2 km
B*
2.5538e-5
RAAN
267.3838°
Arg perigee
283.2791°
Mean anomaly
76.7863°
Rev number
15,946

§ Raw data

STARLINK-308481 58240U 23171L   26263.07303627  .00000440  00000+0  25538-4 0  99942 58240  43.0044 267.3838 0001771 283.2791  76.7863 15.27574109159464

JSON: /api/v1/satellites/58240 · /tle

For live sub-satellite position, see the globe view (requires WebGL).

§ Visibility from observer

Set your observer location to see the next 7 days of passes ≥ 10°. The values pass through the URL so the page stays shareable.

No JS? Fill the form by hand. The geolocation button needs JavaScript.